Welcome to the New NWS' Forecast!
Most changes are behind the scenes, but click here for differences you might notice.
Latest weather observations around

Boyd Deep Canyon Reserve (UCNRS) (UCDE)

Using English Units (Switch to International System of Units)
Date/ Time (PST) Wind (mph) Vis. (mi) Weather Sky Cond. Temp (°F) Rel. Humidity Wind Chill (°F) Heat Index (°F) Pressure Precip. (in)
Air Dwpt 6 hour Altimeter (inHg) Sea level (inHg) 1 hr 3 hr 6 hr
Max Min
Nov 21 10:20 N 3   Clear   74        %     30.13        
Nov 21 10:10 N 3   Clear   75 19     12%   73 30.13        
Nov 21 10:00 E 1   Clear   74 18     12%   72 30.13        
Nov 21 09:50 N 3   Clear   73 22     15%   70 30.14        
Nov 21 09:40 N 4   Clear   74 22     14%   72 30.14        
Nov 21 09:30 SSE 2   Clear   76        %     30.13        
Nov 21 09:20 SSW 1   Clear   77        %     30.13        
Nov 21 09:10 Calm   Clear   77        %     30.13        
Nov 21 09:00 S 1   Clear   75        %     30.12        
Notice The following observation data may not be complete
Nov 21 08:50 Calm   Clear            %     30.12        
Notice The following observation data may not be complete
Nov 21 08:40 Calm   Clear            %     30.11        
Nov 21 08:30 ENE 2   Clear   71        %     30.11        
Nov 21 08:20 S 3   Clear   70 15     12%     30.11        
Nov 21 08:10 SSW 3   Clear   67 14     13%     30.12        
Nov 21 08:00 Calm   Clear   67 14     13%     30.11        
Notice The following observation data may not be complete
Nov 21 07:50 Calm   Clear            %     30.11        
Nov 21 07:40 Calm   Clear   63 13     14%     30.1        
Nov 21 07:30 Calm   Clear   61 13     15%     30.1        
Nov 21 07:20 Calm   Clear   60 14     16%     30.1        
Nov 21 07:10 Calm   Clear   60 14     16%     30.09        
Nov 21 07:00 SSW 2   Clear   60 14     16%     30.09        
Nov 21 06:50 SW 2   Clear   60        %     30.08        
Nov 21 06:40 NE 1   Clear   60        %     30.08        
Nov 21 06:30 E 2   Clear   61        %     30.07        
Nov 21 06:20 SSW 4   Clear   61 15     16%     30.07        
Nov 21 06:10 SSW 3   Clear   60 14     16%     30.06        
Nov 21 06:00 SSW 1   Clear   60 11     14%     30.06        
Nov 21 05:50 SSW 1   Clear   61        %     30.06        
Nov 21 05:40 ESE 1   Clear   61        %     30.06        
Nov 21 05:30 SW 2   Clear   61        %     30.06        
Nov 21 05:20 SSW 4   Clear   60        %     30.05        
Nov 21 05:10 SSW 4   Clear   61 11     14%     30.04        
Nov 21 05:00 SSW 3   Clear   61 11     14%     30.04        
Nov 21 04:50 SW 3   Clear   60        %     30.04        
Nov 21 04:40 WSW 2   Clear   60        %     30.03        
Nov 21 04:30 Calm   Clear   60        %     30.04        
Nov 21 04:20 SSW 3   Clear   60        %     30.04        
Nov 21 04:10 SSW 4   Clear   61        %     30.04        
Nov 21 04:00 SW 2   Clear   60 11     14%     30.04        
Nov 21 03:50 NE 1   Clear   61        %     30.03        
Nov 21 03:40 SSW 2   Clear   60        %     30.03        
Nov 21 03:30 SSW 1   Clear   61        %     30.03        
Nov 21 03:20 S 2   Clear   60 11     14%     30.03        
Nov 21 03:10 SSW 2   Clear   61 11     14%     30.03        
Nov 21 03:00 SW 1   Clear   60 11     14%     30.03        
Nov 21 02:50 S 1   Clear   60        %     30.03        
Nov 21 02:40 Calm   Clear   60 10     14%     30.03        
Nov 21 02:30 Calm   Clear   61 11     14%     30.03        
Nov 21 02:20 SSW 2   Clear   60 11     14%     30.03        
Nov 21 02:10 SSW 1   Clear   60 11     14%     30.03        
Nov 21 02:00 Calm   Clear   61 10     13%     30.03        
Nov 21 01:50 SSW 3   Clear   61        %     30.03        
Nov 21 01:40 SSW 4   Clear   60        %     30.03        
Nov 21 01:30 SSW 4   Clear   60        %     30.03        
Nov 21 01:20 SSW 3   Clear   60 10     14%     30.03        
Nov 21 01:10 W 1   Clear   60 11     14%     30.03        
Nov 21 01:00 ESE 2   Clear   61 10     13%     30.04        
Nov 21 00:50 SSW 3   Clear   62        %     30.04        
Nov 21 00:40 SSW 3   Clear   60        %     30.04        
Nov 21 00:30 Calm   Clear   59        %     30.04        
Nov 21 00:20 E 1   Clear   60 13     16%     30.03        
Nov 21 00:10 SSW 1   Clear   60 13     16%     30.03        
Nov 21 00:00 Calm   Clear   60 12     15%     30.04        
Nov 20 23:50 SSW 1   Clear   61        %     30.04        
Nov 20 23:40 SSW 2   Clear   61        %     30.04        
Nov 20 23:30 SSW 3   Clear   60        %     30.05        
Nov 20 23:20 SW 1   Clear   61 11     14%     30.05        
Nov 20 23:10 SW 2   Clear   61 12     14%     30.05        
Nov 20 23:00 S 1   Clear   61 12     14%     30.04        
Nov 20 22:50 Calm   Clear   61        %     30.04        
Nov 20 22:40 SSW 1   Clear   62        %     30.04        
Nov 20 22:30 SSW 2   Clear   62        %     30.04        
Nov 20 22:20 Calm   Clear   63        %     30.04        
Nov 20 22:10 ENE 3   Clear   63        %     30.03        
Nov 20 22:00 N 3   Clear   65 9     11%     30.03        
Notice The following observation data may not be complete
Nov 20 21:50 S 3   Clear            %     30.02        
Notice The following observation data may not be complete
Nov 20 21:40 S 4   Clear            %     30.02        
Notice The following observation data may not be complete
Nov 20 21:30 S 5   Clear            %     30.02        
Nov 20 21:20 S 4   Clear   67 11     11%     30.02        
Nov 20 21:10 S 2   Clear   68 9     10%     30.02        
Nov 20 21:00 S 3   Clear   67        %     30.02        
Nov 20 20:50 S 4   Clear   66        %     30.01        
Nov 20 20:40 S 1   Clear   64        %     30.01        
Nov 20 20:30 Calm   Clear   64        %     30.01        
Nov 20 20:20 Calm   Clear   64        %     30.01        
Nov 20 20:10 Calm   Clear   65        %     30.01        
Nov 20 20:00 Calm   Clear   65 9     11%     30        
Nov 20 19:50 Calm   Clear   65        %     30        
Nov 20 19:40 SSE 1   Clear   67        %     30        
Nov 20 19:30 SSE 2   Clear   69        %     29.99        
Nov 20 19:20 S 1   Clear   67        %     29.99        
Nov 20 19:10 Calm   Clear   66        %     29.99        
Nov 20 19:00 NE 1   Clear   67        %     29.99        
Nov 20 18:50 S 2   Clear   67        %     29.99        
Nov 20 18:40 S 5   Clear   67        %     29.99        
Nov 20 18:30 S 5   Clear   66 16     14%     29.99        
Nov 20 18:20 SSW 3   Clear   66 15     14%     29.99        
Nov 20 18:10 SW 1   Clear   66 15     14%     29.99        
Nov 20 18:00 Calm   Clear   67 16     14%     29.98        
Nov 20 17:50 Calm   Clear   67 16     14%     29.97        
Nov 20 17:40 SE 1   Clear   68 17     14%     29.97        
Nov 20 17:30 ENE 1   Clear   69 16     13%     29.97        
Nov 20 17:20 NW 2   Clear   70 17     13%     29.96        
Nov 20 17:10 NNW 3   Clear   69 16     13%     29.96        
Nov 20 17:00 ENE 2   Clear   70 17     13%     29.96        
Nov 20 16:50 ENE 2   Clear   70        %     29.96        
Nov 20 16:40 S 2   Clear   71 18     13%   68 29.96        
Nov 20 16:30 SSW 3   Clear   71 18     13%   68 29.96        
Nov 20 16:20 Calm   Clear   72 18     13%   69 29.96        
Nov 20 16:10 Calm   Clear   72 18     13%   70 29.96        
Nov 20 16:00 N 1   Clear   72 19     13%   70 29.97        
Nov 20 10:10 E 1   Clear   71 9     9%   68 30.02        
Nov 20 10:00 ENE 1   Clear   71 9     9%   68 30.02        
Nov 20 09:50 ENE 1   Clear   71        %     30.02        
Notice The following observation data may not be complete
Nov 20 09:40 Calm   Clear            %     30.02        
Nov 20 09:30 SSE 1   Clear   70        %     30.02        
Nov 20 09:20 N 1   Clear   66        %     30.02        
Nov 20 09:10 ENE 1   Clear   66        %     30.01        
Nov 20 09:00 Calm   Clear   66        %     30.01        
Nov 20 08:50 Calm   Clear   66        %     30.01        
Nov 20 08:40 Calm   Clear   65        %     30.01        
Nov 20 08:30 Calm   Clear   65        %     30.01        
Nov 20 08:20 Calm   Clear   64 8     11%     30.01        
Nov 20 08:10 E 1   Clear   63 8     11%     30.01        
Nov 20 08:00 Calm   Clear   62 9     12%     30        
Notice The following observation data may not be complete
Nov 20 07:50 NE 2   Clear            %     30        
Notice The following observation data may not be complete
Nov 20 07:40 NNE 2   Clear            %     30        
Notice The following observation data may not be complete
Nov 20 07:30 SE 1   Clear            %     29.99        
Nov 20 07:20 S 1   Clear   62 7     11%     29.99        
Nov 20 07:10 S 3   Clear   62 7     11%     29.99        
Notice The following observation data may not be complete
Nov 20 07:00 S 3   Clear     6      %     29.99        
Notice The following observation data may not be complete
Nov 20 06:50 S 4   Clear     5      %     29.98        
Notice The following observation data may not be complete
Nov 20 06:40 S 3   Clear     5      %     29.98        
Notice The following observation data may not be complete
Nov 20 06:30 S 4   Clear     5      %     29.99        
Nov 20 06:20 S 5   Clear   62 5     10%     29.99        
Nov 20 06:10 S 4   Clear   62 3     9%     29.99        
Notice The following observation data may not be complete
Nov 20 06:00 S 5   Clear     3      %     29.99        
Notice The following observation data may not be complete
Nov 20 05:50 S 6   Clear     5      %     29.98        
Notice The following observation data may not be complete
Nov 20 05:40 S 6   Clear     5      %     29.98        
Notice The following observation data may not be complete
Nov 20 05:30 S 5   Clear     5      %     29.97        
Notice The following observation data may not be complete
Nov 20 05:20 S 5   Clear     3      %     29.97        
Nov 20 05:10 S 6   Clear   62 3     9%     29.97        
Nov 20 05:00 S 5   Clear   62 3     9%     29.96        
Notice The following observation data may not be complete
Nov 20 04:50 S 5   Clear     5      %     29.96        
Notice The following observation data may not be complete
Nov 20 04:40 S 6   Clear     3      %     29.97        
Notice The following observation data may not be complete
Nov 20 04:30 S 2   Clear     5      %     29.97        
Notice The following observation data may not be complete
Nov 20 04:20 SSE 1   Clear     5      %     29.97        
Nov 20 04:10 S 3   Clear   62 3     9%     29.96        
Nov 20 04:00 SSW 4   Clear   60 3     10%     29.97        
Nov 20 03:50 S 1   Clear   58 4     11%     29.97        
Nov 20 03:40 Calm   Clear   59 2     10%     29.97        
Nov 20 03:30 Calm   Clear   59 5     11%     29.97        
Nov 20 03:20 ENE 1   Clear   59 5     11%     29.97        
Nov 20 03:10 S 1   Clear   61 4     10%     29.97        
Nov 20 03:00 S 4   Clear   62 3     9%     29.96        
Notice The following observation data may not be complete
Nov 20 02:50 S 4   Clear     3      %     29.97        
Notice The following observation data may not be complete
Nov 20 02:40 SSW 6   Clear     3      %     29.97        
Notice The following observation data may not be complete
Nov 20 02:30 SSW 6   Clear     3      %     29.97        
Nov 20 02:20 SSW 5   Clear   63 3     9%     29.97        
Nov 20 02:10 S 5   Clear   62 3     9%     29.97        
Nov 20 02:00 S 5   Clear   62 3     9%     29.97        
Notice The following observation data may not be complete
Nov 20 01:50 S 5   Clear     3      %     29.97        
Notice The following observation data may not be complete
Nov 20 01:40 S 4   Clear     3      %     29.97        
Notice The following observation data may not be complete
Nov 20 01:30 S 4   Clear     3      %     29.97        
Notice The following observation data may not be complete
Nov 20 01:20 S 4   Clear     5      %     29.97        
Notice The following observation data may not be complete
Nov 20 01:10 S 6   Clear     4      %     29.97        
Notice The following observation data may not be complete
Nov 20 01:00 S 6   Clear     4      %     29.97        
Notice The following observation data may not be complete
Nov 20 00:50 S 7   Clear     1      %     29.97        
Notice The following observation data may not be complete
Nov 20 00:40 S 6   Clear     3      %     29.97        
Notice The following observation data may not be complete
Nov 20 00:30 SSW 4   Clear     3      %     29.97        
Nov 20 00:20 S 3   Clear   63 3     9%     29.97        
Nov 20 00:10 SSW 6   Clear   64 1     8%     29.97        
Nov 20 00:00 SSW 6   Clear   64 1     8%     29.98        
Notice The following observation data may not be complete
Nov 19 23:50 S 6   Clear     1      %     29.97        
Nov 19 23:20 S 5   Clear   64 1     8%     29.97        
Nov 19 23:10 S 4   Clear   64 2     8%     29.97        
Notice The following observation data may not be complete
Nov 19 23:00 SSW 8   Clear     2      %     29.98        
Notice The following observation data may not be complete
Nov 19 22:50 SSW 7   Clear     2      %     29.98        
Notice The following observation data may not be complete
Nov 19 22:40 SSW 9   Clear     2      %     29.99        
Notice The following observation data may not be complete
Nov 19 22:30 SSW 9   Clear     2      %     29.99        
Nov 19 22:20 SSW 10   Clear   65 5     9%     29.99        
Nov 19 22:10 SSW 11   Clear   65 5     9%     29.99        
Nov 19 22:00 SSW 10   Clear   65 5     9%     29.99        
Notice The following observation data may not be complete
Nov 19 21:50 SSW 9   Clear     5      %     29.99        
Notice The following observation data may not be complete
Nov 19 21:40 SSW 8   Clear     5      %     29.99        
Notice The following observation data may not be complete
Nov 19 21:30 SSW 7   Clear     5      %     29.99        
Nov 19 21:20 SSW 8   Clear   65 5     9%     29.99        
Nov 19 21:10 SSW 9   Clear   65 5     9%     29.98        
Nov 19 21:00 SSW 9   Clear   65 5     9%     29.98        
Notice The following observation data may not be complete
Nov 19 20:50 SSW 8   Clear     5      %     29.98        
Nov 19 20:40 SSW 7   Clear   65 5     9%     29.98        
Nov 19 20:30 SSW 8   Clear   66 5     9%     29.98        
Nov 19 20:20 SSW 8   Clear   66 5     9%     29.98        
Nov 19 20:10 SSW 8   Clear   66 5     9%     29.98        
Nov 19 20:00 SSW 8   Clear   66 6     9%     29.98        
Notice The following observation data may not be complete
Nov 19 19:50 SSW 10   Clear     6      %     29.98        
Nov 19 19:40 SSW 10   Clear   67 6     9%     29.98        
Nov 19 19:30 SSW 10   Clear   67 6     9%     29.98        
Nov 19 19:20 SSW 9   Clear   67 6     9%     29.98        
Nov 19 19:10 SSW 9   Clear   67 6     9%     29.98        
Nov 19 19:00 SW 10   Clear   67 6     9%     29.97        
Nov 19 18:50 SW 10   Clear   67 6     9%     29.97        
Nov 19 18:40 SSW 8   Clear   67 9     10%     29.97        
Nov 19 18:30 SSW 9   Clear   68 9     10%     29.96        
Nov 19 18:20 SSW 9   Clear   68 9     10%     29.96        
Nov 19 18:10 SSW 9   Clear   68 9     10%     29.96        
Nov 19 18:00 SSW 9   Clear   68 7     9%     29.96        
Nov 19 17:50 SSW 7   Clear   68 7     9%     29.96        
Nov 19 17:40 S 8   Clear   69 8     9%     29.96        
Nov 19 17:30 SSW 9   Clear   69 8     9%     29.96        
Nov 19 17:20 SSW 6   Clear   69 7     9%     29.95        
Nov 19 17:10 S 4   Clear   68 9     10%     29.95        
Nov 19 17:00 S 4   Clear   68 9     10%     29.95        
Nov 19 16:50 S 4   Clear   68 12     11%     29.95        
Nov 19 16:40 S 4   Clear   69 14     12%     29.96        
Nov 19 16:30 S 3   Clear   69 12     11%     29.95        
Nov 19 16:20 SSW 2   Clear   69 13     11%     29.95        
Nov 19 16:10 E 2   Clear   70 15     12%   67 29.94        
Nov 19 16:00 Calm   Clear   71 16     12%   68 29.95        
Nov 19 15:50 NW 1   Clear   72 14     11%   69 29.95        
Nov 19 15:40 NNW 4   Clear   72 15     11%   69 29.96        
Nov 19 15:30 NNW 5   Clear   73 15     11%   71 29.96        
Nov 19 15:20 N 4   Clear   74 14     10%   72 29.96        
Nov 19 15:10 E 2   Clear   75 10     8%   73 29.96        
Nov 19 15:00 SE 1   Clear   77 11     8%   75 29.96        
Nov 19 14:50 SW 2   Clear   76 10     8%   74 29.96        
Nov 19 14:40 WNW 1   Clear   76 10     8%   74 29.96        
Nov 19 14:30 ENE 3   Clear   76 13     9%   73 29.96        
Nov 19 14:20 ENE 1   Clear   76 10     8%   74 29.96        
Nov 19 14:10 ENE 3   Clear   75 10     8%   73 29.96        
Notice The following observation data may not be complete
Nov 19 14:00     Clear            %              
Nov 19 13:30 ENE 3   Clear   74 12     9%   72 29.98        
Nov 19 13:20 E 3   Clear   74 12     9%   71 29.98        
Nov 19 13:10 ENE 2   Clear   74 12     9%   72 29.99        
Nov 19 13:00 E 3   Clear   73 11     9%   71 29.99        
Nov 19 12:50 ENE 4   Clear   74 11     9%   71 29.99        
Nov 19 12:40 E 3   Clear   73 11     9%   70 30        
Nov 19 12:30 E 4   Clear   73 11     9%   70 30        
Nov 19 12:20 ENE 3   Clear   74 11     9%   71 30.01        
Nov 19 12:10 ENE 2   Clear   74 11     9%   71 30.01        
Nov 19 12:00 N 4   Clear   73 13     10%   70 30.02        
Nov 19 11:20 NNE 5   Clear   72 12     10%   69 30.04        
Nov 19 11:10 NNW 5   Clear   72 12     10%   69 30.05        
Nov 19 11:00 N 6   Clear   72 14     11%   69 30.06        
Nov 19 10:50 N 5   Clear   71 14     11%   69 30.06        
Nov 19 10:40 N 3   Clear   72 15     11%   70 30.06        
Nov 19 10:30 ESE 1   Clear   74 16     11%   71 30.06        
Nov 19 10:20 SSE 2   Clear   72 15     11%   69 30.07        
Nov 19 10:10 SSE 3   Clear   71 14     11%   69 30.07        
Nov 19 10:00 SSE 2   Clear   71 14     11%   68 30.08        
Nov 19 09:50 S 2   Clear   71 14     11%   68 30.08        
Nov 19 09:40 S 2   Clear   71 14     11%   68 30.09        
Nov 19 09:30 SSW 1   Clear   71 14     11%   68 30.09        
Nov 19 09:20 S 1   Clear   71 14     11%   68 30.09        
Nov 19 09:10 S 2   Clear   70 13     11%     30.1        
Nov 19 09:00 S 1   Clear   69 12     11%     30.09        
Notice The following observation data may not be complete
Nov 19 08:50 S 1   Clear     13      %     30.09        
Nov 19 08:40 S 1   Clear   69 12     11%     30.09        
Nov 19 08:30 SSW 1   Clear   67 11     11%     30.09        
Nov 19 08:20 SSW 2   Clear   67 10     11%     30.09        
Nov 19 08:10 SSW 1   Clear   69 10     10%     30.09        
Nov 19 08:00 Calm   Clear   65 12     12%     30.08        
Nov 19 07:50 S 4   Clear   64 8     11%     30.08        
Nov 19 07:40 S 6   Clear   63 9     12%     30.07        
Nov 19 07:30 SSW 7   Clear   62 9     12%     30.07        
Nov 19 07:20 SSW 7   Clear   60 9     13%     30.07        
Nov 19 07:10 SSW 8   Clear   60 9     13%     30.07        
Nov 19 07:00 SW 11   Clear   60 9     13%     30.07        
Nov 19 06:10 SSW 9   Clear   60 14     16%     30.06        
Nov 19 06:00 SSW 9   Clear   60 14     16%     30.06        
Notice The following observation data may not be complete
Nov 19 05:40 SSW 11   Clear     14      %     30.06        
Notice The following observation data may not be complete
Nov 19 05:30 SW 10   Clear     14      %     30.06        
Nov 19 05:10 SSW 8   Clear   60 15     17%     30.06        
Nov 19 05:00 SSW 9   Clear   60 14     16%     30.06        
Notice The following observation data may not be complete
Nov 19 04:50 SSW 8   Clear     15      %     30.06        
Notice The following observation data may not be complete
Nov 19 04:40 SSW 8   Clear     15      %     30.06        
Notice The following observation data may not be complete
Nov 19 04:30 SSW 6   Clear     15      %     30.06        
Notice The following observation data may not be complete
Nov 19 04:20 SW 6   Clear     14      %     30.05        
Notice The following observation data may not be complete
Nov 19 04:10 SW 9   Clear     14      %     30.05        
Notice The following observation data may not be complete
Nov 19 04:00 SW 10   Clear     14      %     30.05        
Notice The following observation data may not be complete
Nov 19 03:30 SSW 8   Clear     15      %     30.05        
Nov 19 03:20 SSW 8   Clear   60 15     17%     30.05        
Nov 19 03:10 SW 10   Clear   61 16     17%     30.05        
Nov 19 03:00 SSW 9   Clear   61 16     17%     30.06        
Notice The following observation data may not be complete
Nov 19 02:50 SSW 9   Clear     16      %     30.06        
Notice The following observation data may not be complete
Nov 19 02:40 SW 10   Clear     16      %     30.06        
Notice The following observation data may not be complete
Nov 19 02:30 SW 11   Clear     16      %     30.06        
Notice The following observation data may not be complete
Nov 19 02:20 SW 11   Clear     16      %     30.06        
Notice The following observation data may not be complete
Nov 19 02:10 SW 10   Clear     16      %     30.06        
Nov 19 02:00 SSW 10   Clear   61 16     17%     30.07        
Nov 19 01:50 SSW 10   Clear   61 17     18%     30.07        
Nov 19 01:40 SSW 8   Clear   61 17     18%     30.07        
Nov 19 01:30 SW 10   Clear   62 18     18%     30.08        
Nov 19 01:20 SW 10   Clear   62 18     18%     30.08        
Nov 19 01:10 SW 9   Clear   62 18     18%     30.08        
Nov 19 01:00 SW 8   Clear   62 18     18%     30.09        
Notice The following observation data may not be complete
Nov 19 00:50 SW 8   Clear     18      %     30.09        
Nov 19 00:40 SW 8   Clear   62 18     18%     30.09        
Nov 19 00:30 SW 11   Clear   62 18     18%     30.09        
Nov 19 00:20 SW 11   Clear   62 18     18%     30.09        
Nov 19 00:10 SW 10   Clear   62 18     18%     30.09        
Nov 19 00:00 SW 11   Clear   62 18     18%     30.09        
Notice The following observation data may not be complete
Nov 18 23:50 SSW 10   Clear     19      %     30.09        
Nov 18 23:40 SW 11   Clear   63 19     18%     30.09        
Nov 18 23:30 SW 10   Clear   63 19     18%     30.09        
Nov 18 23:20 SSW 10   Clear   63 19     18%     30.09        
Nov 18 23:10 SSW 10   Clear   63 19     18%     30.1        
Nov 18 23:00 SW 10   Clear   63 19     18%     30.1        
Nov 18 22:50 SW 10   Clear   63 19     18%     30.1        
Nov 18 22:40 SSW 10   Clear   63 20     19%     30.1        
Nov 18 22:30 SSW 8   Clear   63 20     19%     30.1        
Nov 18 22:20 SSW 9   Clear   63 20     19%     30.1        
Nov 18 22:10 SSW 9   Clear   64 19     18%     30.1        
Nov 18 22:00 SSW 8   Clear   64 19     18%     30.1        
Nov 18 21:50 SW 10   Clear   64 20     18%     30.1        
Nov 18 21:40 SW 8   Clear   64 20     18%     30.09        
Nov 18 21:30 SW 8   Clear   64 20     18%     30.09        
Nov 18 21:20 SW 7   Clear   65 20     18%     30.09        
Nov 18 21:10 SW 8   Clear   65 20     18%     30.09        
Nov 18 21:00 SSW 8   Clear   65 20     18%     30.09        
Nov 18 20:50 SSW 8   Clear   65 20     18%     30.1        
Nov 18 20:40 SSW 6   Clear   65 21     18%     30.1        
Nov 18 20:30 SSW 7   Clear   65 21     18%     30.09        
Nov 18 20:20 SSW 8   Clear   66 21     18%     30.1        
Nov 18 20:10 SW 8   Clear   66 21     18%     30.1        
Nov 18 20:00 SW 8   Clear   66 21     18%     30.1        
Nov 18 19:50 SW 8   Clear   66 20     17%     30.09        
Nov 18 19:40 SW 8   Clear   66 20     17%     30.09        
Nov 18 19:30 SW 8   Clear   67 20     17%     30.09        
Nov 18 19:20 SW 9   Clear   67 21     17%     30.09        
Nov 18 19:10 SSW 6   Clear   67 21     17%     30.09        
Nov 18 19:00 SSW 5   Clear   67 21     17%     30.09        
Nov 18 18:50 SW 8   Clear   67 21     17%     30.09        
Nov 18 18:40 SW 8   Clear   68 21     17%     30.08        
Nov 18 18:30 SW 8   Clear   68 21     17%     30.08        
Nov 18 18:20 SSW 9   Clear   68 21     17%     30.08        
Nov 18 18:10 SSW 9   Clear   68 22     17%     30.08        
Nov 18 18:00 SSW 8   Clear   69 21     16%     30.08        
Nov 18 17:50 SSW 8   Clear   69 21     16%     30.07        
Nov 18 17:40 SSW 7   Clear   69 21     16%     30.07        
Nov 18 17:30 S 4   Clear   69 21     16%     30.07        
Nov 18 17:20 S 5   Clear   68 20     16%     30.07        
Nov 18 17:10 S 1   Clear   68 21     17%     30.06        
Nov 18 17:00 Calm   Clear   68 20     16%     30.06        
Nov 18 16:50 Calm   Clear   69 21     16%     30.06        
Nov 18 16:40 SSE 1   Clear   70 20     15%     30.06        
Nov 18 16:30 SSE 2   Clear   71 19     14%   68 30.06        
Nov 18 16:20 S 2   Clear   71 20     14%   69 30.06        
Nov 18 16:10 S 2   Clear   72 20     14%   70 30.06        
Nov 18 16:00 Calm   Clear   73 21     14%   70 30.06        
Nov 18 15:30 S 1   Clear   75 21     13%   72 30.08        
Nov 18 15:20 E 2   Clear   75 21     13%   73 30.07        
Nov 18 15:10 SE 2   Clear   75 21     13%   73 30.08        
Nov 18 15:00 SW 3   Clear   76 22     13%   74 30.08        
Nov 18 14:50 SW 3   Clear   76 20     12%   74 30.08        
Nov 18 14:40 WNW 2   Clear   77 21     12%   75 30.08        
Nov 18 14:30 W 2   Clear   77 20     12%   75 30.08        
Nov 18 14:20 W 1   Clear   78 21     12%   76 30.08        
Nov 18 14:10 ESE 2   Clear   75 21     13%   73 30.08        
Nov 18 14:00 ENE 2   Clear   75 21     13%   73 30.08        
Nov 18 13:50 ENE 2   Clear   75 21     13%   72 30.09        
Nov 18 13:40 ENE 3   Clear   75 19     12%   73 30.09        
Nov 18 13:30 ESE 2   Clear   75 19     12%   73 30.09        
Nov 18 13:20 ENE 2   Clear   75 19     12%   72 30.09        
Nov 18 13:10 NE 2   Clear   74 20     13%   71 30.1        
Nov 18 13:00 N 3   Clear   74 18     12%   72 30.11        
Nov 18 12:50 NE 3   Clear   74 18     12%   71 30.11        
Nov 18 12:40 NE 2   Clear   74 18     12%   71 30.12        
Nov 18 12:30 N 2   Clear   74 18     12%   71 30.13        
Nov 18 12:20 NNW 4   Clear   74 18     12%   71 30.13        
Nov 18 12:10 N 3   Clear   74 18     12%   72 30.13        
Nov 18 12:00 N 3   Clear   74 18     12%   71 30.14        
Nov 18 11:50 N 3   Clear   73 18     12%   71 30.15        
Nov 18 11:40 NNW 3   Clear   73 18     12%   71 30.16        
Nov 18 11:20 N 2   Clear   73 17     12%   70 30.16        
Nov 18 11:10 N 3   Clear   72 17     12%   70 30.17        
Nov 18 11:00 NNE 4   Clear   72 17     12%   70 30.17        
Nov 18 10:50 N 3   Clear   72 19     13%   70 30.18        
Nov 18 10:40 N 3   Clear   72 19     13%   70 30.18        
Nov 18 10:30 NNE 1   Clear   73 19     13%   70 30.18